CAPE
1774 1789 1778 1921 1760 1545 1860 1745 1574 1868 1614 1524 1372 1578 1754 1906 1879 1843 1840 1897 1942 1781 1725 1658 1630 1544 1512 1509 1413 1558 1761 1638 1591 1456 1266 1393 1832 1271 1185 1358 1499 1713 1858 1801 1784 2069 3000 2476 2190 2267 2220 1660 918 1222 1438 1177 1144 1151 1112 1125 1040 943 966 1104 945 973 1082 965 1016 1154 1054 1008 1289 1412 1047 884 851 1134 1138 898 913 927 870 1448 1623
1764 1799 1920 1886 1638 1524 1525 1666 1312 1734 1783 1637 1447 1348 1556 1771 1830 1826 1841 1926 1873 1708 1782 1611 1555 1530 1483 1398 1601 1542 1957 1640 1296 1136 1237 1484 1831 1643 1270 1316 1558 1854 1928 1889 1808 1926 2080 2144 2193 1955 1801 1794 1440 1544 1390 1163 1262 1159 1071 1122 1032 1066 1128 1245 1123 1230 1046 943 840 791 771 812 831 775 824 845 854 997 1305 1248 1394 1086 862 970 1432
1831 1882 2019 1839 1670 1455 1612 1398 1446 1740 1766 1762 1591 1474 1396 1522 1754 2000 1892 1899 1942 2080 1874 1806 1836 1565 1410 1149 1470 1633 1383 1408 1218 1695 1542 1477 1504 1582 1836 1774 2071 2122 2051 2213 1973 1982 2096 2042 1885 1938 2012 2068 2189 1011 726 975 1010 1041 947 1210 1226 1091 1131 1645 1410 1160 1051 1040 869 797 806 706 831 792 646 742 824 1040 1173 1282 1549 1489 1351 1212 1114
1886 1995 2078 1886 1660 1517 1491 1327 1362 1571 1743 1800 1812 1726 1435 1280 1454 1921 2148 2137 2033 2589 2354 2123 1891 1826 1909 1647 1993 2324 2290 2916 2182 2319 1998 1989 1865 1846 1718 1854 1950 2130 2244 2326 1943 1869 1821 1681 1662 1858 2130 2247 2133 1493 1217 1221 1294 1159 1196 1233 1252 1210 1242 1280 1420 1304 1086 1009 886 842 796 685 541 637 617 521 692 870 1004 1184 1484 1522 1481 1593 1473
1931 2043 2072 1954 1859 1770 1547 1320 1337 1411 1412 1695 1761 1687 1582 1348 1443 1620 1947 2301 2419 2832 2509 2286 2132 1807 1752 2271 2317 2292 2219 2211 2092 2080 1968 2101 2204 1885 1778 1748 1760 2312 2507 2026 1812 1617 1659 1503 1508 2020 1794 1936 1706 1490 1469 1508 1326 1180 930 1160 1295 1317 1443 1199 1212 1186 1123 1110 883 836 725 610 580 465 966 836 863 886 961 1168 1431 1479 1389 1450 1777
1903 2011 2043 1941 1778 1739 1614 1407 1297 1420 1521 1479 1488 1558 1571 1487 1360 1448 1704 2244 2437 2684 2496 2230 1988 1753 1670 1724 1920 2049 2004 1945 1821 1703 1529 1707 2014 2209 1985 1960 2502 2547 2349 2271 1876 1995 1712 1751 1536 1620 1955 1994 1803 1820 1515 1172 1063 868 1081 1249 1501 1452 1327 1114 1188 1119 1170 1173 1017 764 651 596 726 1094 843 710 1607 1270 1221 1349 1611 1701 1528 1384 1517
1802 1896 1966 1996 1913 1722 1580 1489 1319 1261 1299 1356 1349 1383 1398 1360 1208 1247 1682 2140 2262 2400 2510 2264 2027 1721 1629 1576 1723 1807 1798 1748 1632 1628 1740 1696 2390 1544 1704 1820 1685 1908 1994 1835 1891 2084 2032 1833 1929 1902 1952 2026 2395 1737 1473 1403 1217 1257 1158 1314 1589 1455 1406 1229 1152 1282 1148 1162 1131 1181 1346 1521 1545 981 865 692 592 1328 1521 1641 1813 1917 1939 1794 1601
1792 1811 1876 1952 1873 1755 1552 1372 1415 1344 1319 1328 1405 1476 1420 1391 1297 1226 1676 1928 2044 2086 2113 2075 1863 1574 1811 1756 1845 1864 1717 1606 1973 2114 1902 2231 1746 1372 1590 1407 1493 1626 1925 2047 2231 2190 2362 2108 2199 2235 2246 2246 2047 1872 1994 1335 1142 1298 1380 1168 1001 1679 1620 1463 1350 1331 1274 1192 1285 1388 1505 1453 1236 1238 1122 954 774 863 922 1676 1824 1893 2076 2107 2067
1742 1801 1835 1887 1850 1747 1686 1528 1421 1326 1417 1438 1557 1603 1480 1402 1434 1387 1622 1777 1839 1895 1882 1806 1761 1866 1906 1967 1892 1709 1719 1677 2190 3316 2455 2359 2222 1812 1448 1511 1631 1728 2093 2299 2272 2168 2742 2602 2400 2395 2294 2141 2571 2400 2244 1542 1102 1224 1599 1342 1117 1483 1769 1718 1299 1042 1331 1448 1231 1230 1112 1150 1296 1480 1451 1183 990 894 985 1034 1131 1808 2066 2062 2130
1689 1736 1794 1761 1756 1703 1662 1658 1555 1390 1286 1351 1495 1437 1356 1576 1579 1479 1684 1744 1878 1918 1800 1725 1767 1920 1950 1856 1718 1588 1815 1660 1857 1393 1608 1894 1313 1162 1474 1397 1149 1298 2001 2240 2112 2112 2070 2534 2562 2412 2321 2025 2812 2432 940 1204 1286 1363 1518 1442 1441 1724 1810 2186 1894 1318 1262 1333 1274 1173 1218 1058 915 834 822 1013 1001 815 823 903 1107 1070 1413 1907 2146
1714 1681 1678 1671 1622 1628 1552 1603 1563 1366 1366 1448 1486 1519 1625 1669 1698 1618 1775 1871 2005 1892 1809 1768 1704 1699 1758 1712 1566 1370 1294 1169 1243 1143 1126 1434 778 314 865 637 130 39 184 1816 2034 1937 2064 2374 2441 2414 2068 2387 2026 668 381 378 596 1290 1787 2045 2114 1799 1714 1702 2135 1904 1599 1491 1244 1261 1339 871 795 865 887 909 929 910 924 1002 1072 1094 1052 1189 1384
1620 1521 1444 1459 1301 1343 1280 1308 1387 1122 1165 1362 1478 1489 1915 1791 1739 1779 1876 2063 2085 2015 1873 1677 1616 1548 1491 1492 1423 1343 1160 984 900 865 808 805 341 184 232 313 170 371 481 257 1246 1827 1823 1963 2394 2164 1755 1098 450 412 453 317 374 434 688 1375 1847 1836 1755 1900 1796 1913 1893 1799 1669 1670 1522 1358 1228 1148 887 892 846 1036 1063 1117 1174 1123 1013 1044 1124
1466 1404 1378 1282 1200 1176 1179 1278 1019 935 1187 1361 1393 1752 2032 1951 1855 1940 1986 2105 2082 2018 1823 1654 1543 1393 1298 1312 1270 1249 1114 1085 992 1114 1050 520 450 988 314 94 280 266 202 186 22 382 849 1317 1661 1160 1170 1223 858 664 764 735 681 640 724 635 396 354 820 1595 1903 1881 1888 1935 1854 1714 1558 1444 1418 1398 1309 1159 1134 1223 1130 901 906 838 782 811 1004
1323 1307 1258 1150 1123 1017 1138 1240 1193 1336 1412 1498 1639 1989 2072 2015 1896 1955 2099 2089 2010 1934 1787 1630 1429 1361 1226 1083 970 1245 1393 1171 819 731 406 256 56 45 46 51 246 143 10 101 66 108 256 377 224 193 304 489 538 389 467 509 804 749 799 245 136 102 176 422 702 1160 1482 1735 1737 1644 1551 1533 1509 1448 1397 1252 1069 945 862 825 835 854 840 908 1053
1221 1200 1199 1032 998 950 1123 1171 1255 1483 1568 1686 1878 2086 2129 2029 1949 1878 1981 1973 1878 1789 1623 1448 1351 1442 1235 1097 1034 1035 635 283 283 18 0 10 18 0 0 5 0 0 0 59 10 0 8 35 32 14 0 20 41 0 9 0 109 488 447 338 285 230 150 193 337 566 667 598 641 838 1016 1170 1232 1240 1183 1147 1093 1004 921 916 920 926 893 1050 1089
1272 1290 1311 1083 1138 1187 1220 1042 1195 1559 1704 1817 2020 2112 2146 2131 2058 1878 1898 2058 1960 1904 1733 1684 1609 1705 1697 1504 996 1351 1799 664 524 642 604 33 0 0 0 2 17 0 0 2 2 0 0 0 0 0 0 0 32 35 20 28 83 108 54 24 5 391 255 126 42 73 99 138 182 230 274 300 331 438 615 956 1079 1065 1027 1012 984 948 921 955 971
1382 1432 1418 1163 1369 1414 1361 1246 1462 1692 1759 1957 1998 2099 2092 2138 1959 1784 1737 2088 2100 1958 1799 1664 1438 1396 1154 7 2 0 53 164 103 96 60 106 185 87 57 136 47 0 0 0 0 0 3 0 0 0 0 0 7 62 96 74 58 8 9 2 0 0 449 327 175 169 102 74 49 80 74 59 154 354 394 645 755 946 989 991 1034 1024 985 974 985
1452 1475 1404 1336 1538 1602 1563 1554 1598 1659 1794 1899 1974 1989 2075 1973 2012 1788 1762 1769 1690 1694 1381 679 454 404 204 27 111 6 0 52 124 103 263 56 13 32 204 26 0 0 0 0 0 0 84 673 1 2 12 0 10 42 67 36 22 2 8 29 8 2 19 34 45 223 113 79 415 262 154 184 222 189 150 202 372 828 1128 1163 1154 1142 1126 1147 1088
1514 1568 1533 1566 1692 1694 1621 1486 1539 1645 1702 1819 2000 2005 1984 1904 1834 1630 1567 1505 1454 1276 552 391 177 153 0 21 132 133 82 19 215 450 46 22 89 47 0 0 0 35 39 0 0 0 0 3 14 8 3 1 0 2 69 7 30 36 252 189 90 32 4 4 14 180 220 222 122 73 38 57 36 45 47 57 115 246 804 1429 1421 1351 1298 1238 1161
1662 1687 1671 1699 1645 1513 1367 1375 1530 1637 1746 1864 1817 1656 1626 1579 1458 1416 1280 1015 934 596 300 84 262 240 163 122 89 11 66 0 53 41 0 0 0 21 0 0 0 25 0 0 0 1 24 1 0 1 3 1 0 1 4 14 91 94 81 72 45 0 0 1 2 10 69 93 45 27 24 21 23 16 12 7 11 25 103 299 906 1390 1506 1434 1343
1705 1738 1691 1640 1453 1305 1194 1331 1461 1618 1635 1551 1519 1408 1321 1312 1231 1015 733 495 337 223 116 76 261 129 142 2 0 0 0 184 20 73 28 34 18 533 0 1 6 3 0 0 0 0 0 3 0 39 19 0 0 0 5 98 101 16 11 62 41 10 12 4 72 0 0 15 75 15 40 82 58 37 9 3 5 4 0 0 6 217 631 1070 1390
1744 1758 1558 1581 1533 1399 1362 1307 1416 1431 1323 1342 1296 1192 1182 1177 825 444 277 298 88 161 161 202 188 67 1 0 1 13 7 32 83 80 142 68 0 0 0 2 0 0 2 35 17 102 30 0 6 22 9 1 0 0 11 242 20 15 12 183 90 20 13 11 4 6 2 21 33 70 80 60 62 25 37 57 56 60 32 25 3 5 36 216 705
1784 1588 1500 1574 1535 1438 1378 1304 1200 1071 1208 1237 1081 1100 958 638 276 78 284 355 108 252 212 104 36 0 0 5 153 112 25 56 81 124 54 32 0 0 312 0 0 0 81 35 92 136 109 82 106 112 53 18 63 139 160 187 10 8 8 30 117 60 11 18 27 4 2 9 73 196 84 25 3 0 0 14 70 79 96 64 101 174 360 382 391
1586 1475 1475 1514 1340 1272 1229 1148 999 903 946 876 878 788 454 223 70 34 109 322 254 212 95 35 94 56 38 83 138 107 216 152 142 125 134 52 244 34 290 68 94 102 178 364 169 87 86 67 87 149 122 38 16 17 29 53 14 5 19 11 12 13 8 9 17 21 6 63 143 44 1 0 0 0 0 0 20 71 119 183 246 255 290 477 508
1479 1308 1324 1288 1122 1106 1091 927 800 442 169 171 174 39 203 59 36 35 36 325 262 263 123 72 99 256 86 67 90 149 330 205 233 218 199 220 150 198 468 160 107 104 151 76 127 264 210 172 137 115 137 132 105 144 127 72 63 83 46 16 2 0 0 3 6 6 396 516 48 0 0 0 0 0 0 0 0 16 82 196 300 383 505 515 592
1386 1334 1290 1202 846 831 700 511 215 0 0 0 0 3 18 3 77 36 129 448 336 250 167 333 300 199 240 351 492 452 244 233 398 629 511 413 473 234 148 221 180 63 60 82 128 72 378 263 181 222 235 203 178 190 171 125 114 86 58 41 26 13 12 10 6 20 154 146 97 21 0 0 0 0 0 0 0 0 34 183 350 462 477 487 515
1412 1304 1162 983 581 526 463 422 16 0 0 0 0 0 0 33 204 167 306 427 330 300 281 416 396 365 279 241 394 395 262 226 372 424 440 387 242 260 150 148 297 183 109 127 104 83 181 204 230 221 225 210 200 159 163 194 190 163 152 104 33 21 77 146 183 193 257 165 54 8 2 0 0 0 0 0 0 0 104 257 423 398 374 324 424
1269 1086 956 688 523 479 441 286 22 2 0 0 0 0 0 235 362 272 330 444 444 349 375 252 502 524 347 624 423 400 386 499 535 355 252 287 236 227 252 296 473 282 218 168 190 273 270 264 267 253 242 221 204 218 230 232 227 216 212 196 155 108 148 204 239 265 222 48 23 14 4 1 0 0 0 0 0 70 120 80 111 224 312 341 370
1082 851 718 627 510 458 367 127 54 6 0 0 0 0 33 514 435 376 500 528 490 382 546 500 223 508 501 406 427 733 364 738 672 156 224 299 308 340 309 258 333 408 647 566 400 349 324 305 296 305 300 287 284 296 320 312 311 307 302 271 237 177 163 206 188 139 66 40 30 20 12 1 21 300 400 124 4 1 2 1 40 151 408 505 524
960 764 603 562 480 405 235 54 115 9 1 14 12 8 144 641 511 454 540 609 519 468 503 656 299 506 544 444 585 683 498 327 256 288 346 335 330 309 388 448 381 247 308 420 417 455 457 414 340 236 141 248 265 296 916 1218 762 733 406 221 178 186 184 158 120 96 65 41 31 23 24 372 389 246 22 12 8 3 2 39 157 192 374 388 472
925 749 588 431 397 315 248 148 279 82 35 73 74 79 134 688 602 588 590 780 551 350 338 716 622 652 657 601 443 420 378 350 354 365 388 308 399 386 410 474 420 406 431 438 507 228 197 97 58 48 80 128 114 236 788 12 21 27 84 28 31 43 64 85 87 60 30 21 20 18 6 58 294 467 592 134 25 22 21 66 206 261 242 582 606
878 676 589 428 365 338 305 308 502 243 78 148 158 169 106 824 764 727 691 908 725 550 572 678 635 703 636 485 415 400 409 393 426 398 356 403 567 559 465 492 547 465 452 351 194 91 66 39 60 135 90 63 125 547 13 9 10 10 14 103 25 25 31 29 29 25 20 17 16 17 6 7 12 15 76 48 293 317 205 286 380 404 343 363 466
946 837 649 480 430 402 490 614 770 740 465 383 390 413 182 758 953 819 887 982 872 723 635 636 741 718 602 562 531 518 492 448 391 428 493 626 519 491 486 514 443 523 593 250 184 211 72 22 16 4 12 14 10 515 10 16 10 6 11 49 20 14 17 21 18 21 23 22 19 16 7 5 1 131 367 123 16 46 282 432 384 374 502 446 489
891 871 596 497 481 436 545 629 769 908 911 962 1045 691 439 943 1120 998 1135 938 894 920 729 770 918 834 766 727 661 613 561 483 433 427 468 490 602 539 495 455 594 472 276 214 53 37 0 2 13 15 12 15 15 217 52 25 22 13 11 38 34 11 9 9 10 16 20 24 28 4 2 0 0 15 2 2 14 128 140 60 48 19 12 222 554
963 1020 824 576 548 504 526 495 740 910 1154 1325 1447 1273 1010 1261 1304 1166 1257 1058 955 917 986 961 913 797 860 850 791 720 607 482 401 381 554 603 541 394 293 306 382 217 143 71 0 0 6 77 12 16 16 19 7 45 20 23 17 15 14 83 30 18 15 17 18 24 35 58 60 36 7 7 1 2 37 263 270 209 167 69 43 38 62 89 222
1086 1172 979 763 700 674 626 630 759 954 1168 1305 1465 1506 1372 1468 1599 1399 1358 1208 1156 1099 1032 1122 948 903 932 972 910 694 477 504 481 487 435 355 296 352 196 277 280 1 6 0 0 4 13 6 7 14 13 4 3 10 19 22 22 24 22 61 10 7 7 19 37 44 44 37 37 43 48 48 60 49 150 277 355 283 301 227 253 280 243 184 160
1111 1231 1201 994 887 794 752 843 906 884 1013 1214 1349 1478 1481 1495 1635 1615 1548 1437 1274 1324 1067 963 717 736 827 996 714 456 711 695 572 469 399 370 288 173 84 422 0 0 0 0 0 3 10 3 4 17 4 0 0 18 25 25 28 29 24 22 8 12 21 22 21 21 22 23 38 45 76 94 94 62 210 178 170 169 121 110 79 37 28 20 22
1236 1220 1280 1230 1123 1066 1041 1114 1115 1129 1088 1006 1163 1327 1355 1378 1465 1581 1628 1687 1511 1340 1177 1000 918 907 856 729 535 516 556 596 657 441 323 235 309 172 34 164 18 0 0 0 0 0 0 0 1 0 0 10 26 34 30 36 41 29 108 79 26 17 17 18 19 19 16 16 44 195 123 50 36 61 146 80 50 66 5 0 2 1 0 0 0
1309 1368 1306 1352 1383 1378 1359 1326 1336 1342 1310 1309 1201 1098 1155 1163 1243 1359 1463 1610 1672 1503 1380 1214 1087 982 759 556 511 488 536 661 423 330 271 199 159 1 13 30 6 0 0 0 3 3 0 0 0 0 80 236 35 27 33 44 23 18 62 34 24 28 26 22 23 18 15 13 12 105 95 80 56 155 56 28 9 22 0 0 2 3 0 0 0
1693 1564 1491 1461 1491 1528 1579 1601 1603 1569 1476 1534 1469 1244 1196 1264 1329 1277 1267 1309 1540 1620 1491 1364 1150 938 821 616 554 521 570 350 263 106 188 46 58 71 0 0 0 0 0 0 7 7 9 16 4 19 20 21 18 22 50 49 18 16 22 66 34 27 27 28 20 12 11 1 0 0 21 36 28 37 0 0 0 0 0 0 3 7 4 0 0
1811 1779 1787 1698 1751 1761 1780 1776 1752 1752 1748 1678 1598 1553 1591 1657 1668 1630 1452 1286 1331 1384 1362 1196 942 681 553 556 533 444 301 82 60 45 15 96 52 0 0 0 0 4 7 4 10 13 19 21 18 5 11 11 12 25 32 37 21 17 22 41 20 18 20 19 5 6 0 0 0 0 0 3 3 7 8 8 8 11 15 18 17 11 5 0 0
1839 1813 1830 1869 1910 1974 1948 1967 1900 1916 1863 1848 1905 1967 1967 1907 1845 1755 1598 1378 1266 1282 1228 1027 627 545 516 496 322 300 108 92 91 91 15 0 0 0 0 0 0 14 16 16 16 20 22 6 0 0 1 0 3 30 32 64 29 14 14 17 26 3 22 1 0 0 0 0 0 0 0 1 7 11 13 13 13 14 19 29 19 3 0 0 0
1782 1768 1723 1729 1765 1851 1929 1997 2017 2093 2114 2102 2140 2085 1988 1878 1721 1498 1362 1245 1040 789 708 628 610 542 476 252 141 401 529 197 100 76 0 0 0 0 0 0 0 0 0 0 0 3 0 0 0 0 0 0 0 1 20 79 60 23 0 0 5 2 1 28 0 0 0 0 0 0 0 4 11 15 16 15 14 15 17 15 12 9 3 0 2
1957 1891 1834 1760 1647 1632 1643 1666 1748 1796 1828 1767 1712 1692 1566 1456 1348 1163 862 804 1007 734 863 906 876 435 285 222 272 352 80 34 55 12 0 0 0 0 0 0 0 0 0 0 0 0 0 0 0 0 0 0 0 0 0 31 90 69 25 19 25 16 0 0 4 0 0 0 0 0 1 0 0 0 0 0 0 0 0 1 5 8 6 0 0
1792 1702 1547 1366 1225 1149 1124 1037 1072 1136 1126 1059 998 1017 815 692 615 665 728 816 885 924 611 398 328 284 334 106 60 56 26 0 119 0 0 0 0 0 0 0 0 0 0 0 0 0 0 0 0 0 0 0 0 0 0 4 41 90 107 79 70 45 14 0 0 0 0 0 0 0 0 0 0 0 0 0 0 0 1 2 4 3 0 3 7
1496 1375 1258 1173 1137 1100 1014 958 877 766 633 606 606 580 747 889 1001 1173 824 710 564 558 705 337 66 0 0 0 0 0 0 0 0 0 0 0 0 0 0 0 0 0 0 0 0 0 0 0 0 0 0 0 0 0 0 0 0 4 50 46 35 7 13 3 2 0 0 0 0 0 0 0 0 0 0 0 0 0 3 6 5 7 9 5 4
1349 1302 1162 1050 1027 996 960 936 865 931 909 764 619 666 748 874 974 898 703 478 611 547 337 9 0 0 0 0 0 0 0 0 0 0 0 0 0 0 0 0 0 0 0 0 0 0 0 0 0 0 0 0 0 0 0 0 0 0 0 0 0 0 0 0 0 0 0 0 0 0 0 0 0 0 0 0 0 0 2 5 8 10 4 0 0
1253 1205 1137 1090 1041 1009 972 960 947 924 772 478 478 478 508 528 567 587 477 310 461 90 0 0 0 0 0 0 0 16 0 0 0 0 0 0 0 0 0 0 0 0 0 0 0 0 0 0 0 0 0 0 0 0 0 0 0 0 0 0 0 0 0 0 0 0 0 0 0 0 0 0 0 0 0 0 0 0 0 0 0 0 0 1 3
1180 1144 1119 1090 1041 967 890 851 850 803 501 40 0 1 3 0 0 0 14 32 64 62 0 0 0 0 0 0 0 0 0 0 0 0 0 0 0 0 0 0 0 0 0 0 0 0 0 0 0 0 0 0 0 0 0 0 0 0 0 0 0 0 0 0 0 3 0 0 0 0 0 0 0 0 0 0 0 1 0 0 0 3 12 21 25
987 1018 1021 1019 992 929 839 591 259 33 20 19 4 1 0 0 0 0 0 0 2 0 0 0 0 0 0 0 0 0 0 0 0 0 0 0 13 0 0 0 0 0 0 0 0 0 0 0 0 0 0 0 0 0 0 0 0 0 0 0 0 2 3 0 0 0 0 0 0 0 0 0 0 0 0 0 3 2 0 0 8 15 22 17 15
801 850 828 757 672 489 186 90 24 15 1 0 0 0 0 0 0 0 0 0 0 0 0 0 0 0 0 0 0 0 0 0 0 0 0 0 0 0 0 0 0 0 0 0 0 0 0 0 0 0 0 0 0 0 0 0 0 0 0 0 0 2 0 0 0 0 0 1 1 0 0 0 0 0 1 4 6 1 0 3 13 13 12 14 13
Wind_Speed
12 16 19 20 20 14 3 12 21 20 16 13 13 13 15 16 16 15 15 15 17 18 18 18 19 19 18 15 12 13 15 16 15 14 14 13 12 12 11 10 9 6 3 5 6 5 2 3 4 5 8 12 11 8 10 9 9 6 7 5 4 3 4 3 3 1 2 4 4 3 2 3 4 3 2 3 2 3 3 2 2 2 2 1 1
12 13 17 19 17 15 9 8 14 14 15 14 12 13 16 16 16 15 16 16 17 18 18 18 17 15 14 12 13 14 14 14 12 12 12 11 9 8 3 3 3 4 7 6 6 5 5 4 6 7 8 9 10 11 10 13 12 13 11 10 8 7 7 6 5 3 3 2 2 3 4 3 3 4 2 0 1 0 0 2 3 2 1 1 2
12 14 16 18 17 14 11 10 8 9 13 13 14 16 17 16 14 14 15 16 18 19 20 20 19 17 16 14 16 15 13 11 11 11 10 7 4 1 5 7 6 8 8 8 7 6 6 7 10 11 10 10 8 6 10 11 9 17 17 15 12 12 12 9 9 9 5 2 1 3 4 6 4 3 3 4 4 2 2 2 2 3 2 2 3
14 15 16 16 16 14 11 10 8 7 9 10 13 14 15 15 12 12 14 15 17 17 19 21 22 22 22 20 17 16 12 11 10 10 7 4 7 9 11 9 8 8 8 7 7 8 9 10 10 11 10 10 11 12 16 14 13 14 20 18 14 13 12 11 10 10 7 7 4 4 1 2 4 2 2 2 7 6 6 4 4 4 4 3 5
13 13 14 15 17 17 15 10 8 6 6 7 8 10 12 12 9 10 13 14 15 14 18 19 22 23 23 22 18 14 12 10 8 6 7 9 12 12 13 10 9 8 7 7 7 8 10 10 10 10 10 11 10 12 13 13 14 17 19 19 16 14 11 10 11 11 12 10 6 5 3 2 5 3 3 3 5 5 5 6 5 5 6 6 6
15 15 15 15 15 13 13 12 9 6 5 4 5 7 8 8 8 9 9 10 10 11 13 15 16 18 17 17 14 10 7 6 8 11 13 12 11 10 9 8 7 7 7 6 7 7 9 9 10 10 10 11 10 12 13 14 15 18 18 17 18 15 11 10 11 11 14 15 13 9 8 7 5 4 1 1 3 3 5 5 5 5 6 6 6
9 10 11 10 9 10 9 10 11 9 8 7 6 6 6 5 6 5 5 5 5 7 8 9 11 10 9 8 7 5 7 13 13 12 11 11 10 9 9 9 7 7 7 6 6 8 7 7 9 9 9 9 9 10 10 11 13 13 12 13 14 11 10 11 12 11 9 12 14 15 11 8 7 5 7 2 0 3 4 4 4 6 6 6 5
11 10 11 12 12 13 11 7 4 7 1 6 7 5 3 2 3 2 3 2 2 2 2 2 3 3 5 8 10 11 13 13 12 11 10 11 10 10 9 11 9 8 7 7 7 6 5 6 6 7 7 8 8 8 8 10 8 10 10 8 9 11 11 11 7 8 10 10 9 12 12 10 9 9 9 8 6 3 1 4 3 4 6 6 5
11 9 10 10 10 9 8 5 3 6 9 6 2 3 1 2 3 4 4 3 4 4 5 6 7 9 12 13 13 14 11 11 11 11 10 11 11 10 10 10 11 9 7 7 6 5 5 5 4 5 5 6 5 5 7 7 8 10 9 8 10 9 9 8 8 10 11 11 8 7 7 9 8 8 8 9 8 6 5 5 3 5 5 4 5
7 7 8 7 8 7 5 5 2 5 4 4 5 4 3 2 3 5 6 7 7 8 9 11 13 13 13 14 12 12 11 11 10 10 10 9 10 10 9 9 10 9 7 7 5 4 4 4 3 3 4 3 3 3 3 6 7 8 9 10 8 7 7 8 10 10 10 8 8 7 8 5 7 6 7 9 7 9 9 6 7 6 5 4 5
10 7 9 9 6 6 5 3 6 10 9 4 2 5 6 4 4 6 8 9 10 10 11 12 14 13 12 10 10 9 10 8 8 8 8 7 7 9 7 6 7 nan 8 7 5 2 2 2 2 2 1 0 1 3 2 2 2 3 3 4 5 6 6 7 7 9 9 8 11 9 8 8 9 7 6 8 9 9 9 7 6 8 7 2 6
10 8 9 10 7 6 6 5 6 7 9 8 4 4 6 5 4 5 8 9 10 11 12 12 12 12 11 10 9 9 7 6 5 5 6 5 6 7 9 11 8 7 5 4 2 1 1 1 1 3 3 3 5 5 4 4 3 3 3 3 4 4 5 5 6 7 9 9 10 12 10 11 11 11 10 10 11 8 9 6 6 8 8 7 4
10 8 9 8 8 7 6 3 5 5 8 9 5 2 2 3 3 4 7 9 9 9 10 11 11 10 10 10 9 8 7 6 6 7 7 7 6 7 8 nan 7 8 4 4 nan 5 5 5 6 7 6 7 8 8 7 6 6 6 5 5 6 6 6 7 8 8 10 11 10 11 12 12 11 11 11 12 11 12 13 9 6 11 8 7 8
8 8 7 7 7 5 3 3 3 4 6 7 5 2 2 2 1 2 4 6 7 8 8 9 10 10 10 9 8 8 7 7 7 7 7 7 nan nan nan nan 7 6 nan 12 nan 11 12 11 12 12 12 11 11 11 10 10 9 9 9 8 7 7 9 10 10 9 11 11 12 11 12 14 13 13 13 15 14 16 14 12 9 13 13 10 11
6 6 6 7 7 5 3 3 3 2 3 5 3 2 2 1 1 1 2 5 5 6 8 8 9 9 9 9 9 9 7 7 6 nan nan nan nan nan nan nan nan nan nan nan nan nan nan nan nan nan nan nan nan nan nan nan 14 13 13 12 12 12 12 13 14 14 14 13 15 16 15 16 16 15 16 16 17 17 17 17 18 12 14 15 14
4 5 5 5 6 3 2 1 1 1 1 2 1 2 2 2 2 1 0 2 3 5 6 7 9 9 9 8 8 7 9 11 11 12 11 nan nan nan nan nan nan nan nan nan nan nan nan nan nan nan nan nan nan nan nan nan nan 18 nan nan nan 17 18 18 nan nan nan 18 17 18 19 18 18 18 20 18 19 18 18 20 22 20 16 14 18
5 4 5 5 4 3 3 2 1 2 3 3 3 3 3 4 4 3 2 3 3 4 5 7 8 8 7 nan nan nan nan 12 11 nan nan 12 13 nan nan 13 nan nan nan nan nan nan nan nan nan nan nan nan nan nan nan nan nan nan nan nan nan nan 22 21 21 22 22 nan nan nan nan nan 21 22 22 22 21 22 22 22 23 22 22 19 18
9 6 6 5 4 4 4 3 3 4 5 6 6 6 6 6 6 5 5 5 5 6 6 6 8 9 9 nan 11 nan nan nan 12 12 13 nan nan nan 16 nan nan nan nan nan nan nan nan 20 nan nan nan nan nan nan nan nan nan nan nan nan nan nan nan nan nan 25 24 nan 26 26 26 25 25 24 23 23 24 24 24 25 25 23 25 22 21
9 8 8 6 5 5 5 5 5 6 8 7 8 9 8 8 8 8 8 8 8 8 8 10 10 10 nan nan 11 12 nan nan 13 14 nan nan nan nan nan nan nan nan nan nan nan nan nan nan nan nan nan nan nan nan nan nan nan nan 28 28 nan nan nan nan nan 29 28 29 29 nan nan nan nan nan nan nan 25 26 26 27 27 26 25 23 22
12 9 8 6 5 6 6 7 8 9 10 9 10 10 10 9 9 9 11 11 11 10 10 nan 11 11 11 13 nan nan nan nan nan nan nan nan nan nan nan nan nan nan nan nan nan nan nan nan nan nan nan nan nan nan nan nan nan nan nan nan nan nan nan nan nan nan nan nan nan nan nan nan nan nan nan nan nan nan 28 28 28 27 27 25 24
15 11 8 6 6 7 7 9 11 12 12 12 13 12 12 10 10 10 12 11 11 11 11 nan 12 11 13 nan nan nan nan 16 nan nan nan nan nan 19 nan nan nan nan nan nan nan nan nan nan nan nan nan nan nan nan nan nan 29 nan nan nan nan nan nan nan nan nan nan nan nan nan nan nan nan nan nan nan nan nan nan nan nan 29 29 28 28
17 13 9 7 11 11 11 13 14 14 15 16 15 16 14 12 11 12 13 10 nan 11 12 11 12 nan nan nan nan nan nan nan nan nan 20 nan nan nan nan nan nan nan nan nan nan 27 nan nan nan nan nan nan nan nan nan 31 nan nan nan 33 nan nan nan nan nan nan nan nan nan nan nan nan nan nan nan nan nan nan nan nan nan nan nan 31 31
18 14 10 11 14 14 16 17 17 17 17 18 18 18 16 14 14 nan 15 12 13 12 13 13 nan nan nan nan 16 16 nan nan nan 18 nan nan nan nan 22 nan nan nan nan nan nan 27 26 nan 27 26 nan nan nan 29 31 32 nan nan nan nan 34 nan nan nan nan nan nan nan nan 36 nan nan nan nan nan nan nan nan nan nan 33 34 34 34 34
17 14 12 14 15 16 18 19 20 20 20 20 20 20 19 17 nan nan 17 15 15 14 nan nan nan nan nan nan 16 16 17 18 18 18 17 nan 21 nan 24 nan nan 27 28 26 27 nan nan nan nan 28 29 nan nan nan nan nan nan nan nan nan nan nan nan nan nan nan nan nan 35 nan nan nan nan nan nan nan nan nan 33 34 34 34 35 35 36
17 16 16 17 17 18 18 20 21 21 21 21 21 nan 20 nan nan nan nan 16 16 16 16 nan nan 16 nan nan nan 18 18 18 18 19 20 21 23 24 26 27 27 27 27 nan 27 27 27 28 27 28 29 30 30 32 33 nan nan nan nan nan nan nan nan nan nan nan 33 35 nan nan nan nan nan nan nan nan nan nan nan 34 35 36 37 37 39
21 19 19 20 18 17 18 19 19 nan nan nan nan nan nan nan nan nan 17 16 16 16 17 17 17 18 18 18 18 19 19 19 20 21 23 25 25 26 26 26 26 nan nan nan 26 nan 27 27 28 28 29 30 30 31 31 32 32 nan nan nan nan nan nan nan nan nan 33 34 nan nan nan nan nan nan nan nan nan nan nan 36 36 37 38 39 39
25 23 22 20 17 17 17 17 nan nan nan nan nan nan nan nan 16 16 16 17 17 18 17 18 17 18 18 19 19 19 19 20 22 23 23 24 25 24 25 24 25 25 25 25 25 nan 27 28 28 29 30 30 30 31 30 30 30 31 30 30 nan nan nan 30 30 31 33 35 nan nan nan nan nan nan nan nan nan nan 37 37 38 38 39 40 41
22 24 26 25 21 18 19 18 nan nan nan nan nan nan nan 17 18 17 17 17 17 19 19 19 19 19 19 19 19 19 20 21 22 23 23 24 24 24 23 23 24 25 25 25 26 26 27 28 29 29 29 30 30 30 30 30 29 29 30 30 31 32 32 32 32 33 35 nan nan nan nan nan nan nan nan nan nan nan 40 nan 40 40 41 41 41
27 26 27 27 24 21 22 22 nan nan nan nan nan nan nan 17 19 20 20 20 20 20 20 19 19 20 18 18 19 20 21 22 22 23 23 23 23 22 22 23 24 24 25 26 26 27 28 28 29 30 30 30 30 30 30 30 30 31 31 31 31 32 33 34 35 36 nan nan nan nan nan nan nan 36 33 34 nan nan nan nan nan 41 42 41 41
27 25 26 27 27 26 26 nan 26 nan nan nan nan nan 20 21 21 21 21 19 21 20 20 20 20 19 18 18 20 21 22 22 23 22 22 22 21 21 22 23 24 25 26 27 28 29 30 30 30 30 31 31 31 32 29 27 32 34 33 33 33 33 34 36 37 nan nan nan nan nan nan 37 34 32 nan nan nan nan nan nan 40 42 42 41 41
22 21 22 24 25 26 27 28 28 nan nan nan nan nan 23 23 23 22 21 20 21 22 20 21 20 19 20 20 20 20 21 21 21 22 22 22 21 22 24 25 27 28 28 29 31 31 30 nan nan nan nan 31 32 32 34 nan nan nan nan nan nan nan nan nan nan nan nan nan nan nan nan nan 39 38 39 34 nan nan nan nan 33 35 39 42 42
21 22 23 24 25 25 25 25 24 26 nan 26 25 25 27 27 26 25 23 24 24 24 23 22 21 22 22 21 20 20 20 19 21 21 22 22 24 26 27 28 29 30 30 32 32 nan nan nan nan 30 nan nan 32 34 nan nan nan nan nan 36 nan nan nan nan nan nan nan nan nan nan nan nan nan nan nan nan 38 34 33 35 37 38 38 38 40
23 25 25 26 27 27 26 25 24 23 22 24 29 31 30 29 30 28 28 28 28 27 26 24 23 24 25 24 23 21 19 19 20 21 23 24 26 28 29 30 30 30 31 31 30 30 nan nan nan nan nan nan nan 32 nan nan nan nan nan nan nan nan nan nan nan nan nan nan nan nan nan nan nan 37 39 43 nan nan 40 39 39 38 40 40 42
22 22 24 26 25 25 25 26 26 24 24 25 28 31 29 28 29 29 29 28 29 29 29 27 27 27 28 28 27 24 21 21 22 22 24 26 28 29 29 29 30 30 30 29 nan nan nan nan nan nan nan nan nan 31 nan nan nan nan nan nan nan nan nan nan nan nan nan nan nan nan nan nan nan nan nan nan nan 45 45 nan nan nan nan 44 42
26 26 27 27 26 25 24 23 23 24 26 26 22 23 25 25 27 28 27 27 26 28 27 25 24 26 27 29 29 26 24 24 24 22 25 26 27 28 29 29 30 28 28 nan nan nan nan nan nan nan nan nan nan nan nan nan nan nan nan nan nan nan nan nan nan nan nan nan nan nan nan nan nan nan nan 42 44 44 45 nan nan nan nan nan 49
29 32 31 29 26 25 24 23 21 23 22 24 25 24 26 25 25 26 25 25 25 25 23 23 23 21 21 22 25 24 24 27 24 23 26 27 27 28 29 29 29 nan nan nan nan nan nan nan nan nan nan nan nan nan nan nan nan nan nan nan nan nan nan nan nan nan nan nan nan nan nan nan nan nan 39 34 36 42 45 44 45 47 48 49 49
30 31 29 27 24 22 20 19 19 19 21 21 23 25 26 25 24 22 23 23 25 27 32 29 23 22 20 21 18 17 23 25 21 25 27 27 28 29 nan 29 nan nan nan nan nan nan nan nan nan nan nan nan nan nan nan nan nan nan nan nan nan nan nan nan nan nan nan nan nan nan nan nan nan nan 36 36 39 40 48 47 nan nan nan nan nan
28 25 24 22 19 18 16 17 17 17 19 21 22 23 23 23 21 22 24 25 28 29 28 26 26 26 24 22 19 14 19 23 25 26 26 26 28 29 nan 28 nan nan nan nan nan nan nan nan nan nan nan nan nan nan nan nan nan nan 35 nan nan nan nan nan nan nan nan nan nan 35 37 nan nan nan 41 nan nan nan nan nan nan nan nan nan nan
27 26 23 21 17 17 16 15 17 17 16 19 22 24 25 23 22 22 23 24 25 24 24 24 24 21 20 23 22 20 22 25 27 27 27 28 29 nan nan nan nan nan nan nan nan nan nan nan nan nan nan 31 nan nan nan nan nan nan nan nan nan nan nan nan nan nan nan nan nan 42 nan nan nan 41 nan nan nan nan nan nan nan nan nan nan nan
23 23 23 20 18 18 16 17 17 16 16 20 22 22 22 22 22 21 21 20 20 22 22 23 21 17 16 20 21 24 25 27 27 26 28 nan nan nan nan nan nan nan nan nan nan nan nan nan nan nan nan nan nan nan nan nan nan nan nan nan nan nan nan nan nan nan nan nan nan nan nan nan nan nan nan nan nan nan nan nan nan nan nan nan nan
23 21 21 20 17 17 18 16 15 16 18 20 22 23 21 20 20 20 19 19 21 23 24 23 22 19 20 23 25 26 26 nan nan nan nan nan nan nan nan nan nan nan nan nan nan nan nan nan nan nan nan nan nan nan nan nan nan nan nan nan nan nan nan nan nan nan nan nan nan nan nan nan nan nan nan nan nan nan nan nan nan nan nan nan nan
20 20 19 19 19 18 18 17 15 16 17 19 21 20 18 19 20 21 19 20 21 22 22 22 20 21 24 26 26 25 26 nan nan nan nan nan nan nan nan nan nan nan nan nan nan nan nan nan nan nan nan nan nan nan nan nan nan nan nan nan nan nan nan nan nan nan nan nan nan nan nan nan nan nan nan nan nan nan nan nan nan nan nan nan nan
20 17 15 19 20 19 19 18 17 18 18 18 20 21 19 19 20 19 18 20 21 22 23 22 23 25 26 26 25 26 26 26 25 nan nan nan nan nan nan nan nan nan nan nan nan nan nan nan nan nan nan nan nan nan nan nan nan nan nan nan nan nan nan nan nan nan nan nan nan nan nan nan nan nan nan nan nan nan nan nan nan nan nan nan nan
18 18 18 20 21 20 20 18 18 19 21 22 23 23 20 20 18 18 19 20 22 23 23 24 25 26 26 25 25 25 nan nan nan nan nan nan nan nan nan nan nan nan nan nan nan nan nan nan nan nan nan nan nan nan nan nan nan nan nan nan nan nan nan nan nan nan nan nan nan nan nan nan nan nan nan nan nan nan nan nan nan nan nan nan nan
20 20 19 20 23 23 21 20 19 19 19 20 19 21 20 20 18 21 22 23 24 25 25 24 25 25 25 24 nan nan nan nan 26 nan nan nan nan nan nan nan nan nan nan nan nan nan nan nan nan nan nan nan nan nan nan nan nan nan 34 nan nan nan nan nan nan nan nan nan nan nan nan nan nan nan nan nan nan nan nan nan nan nan nan nan nan
21 21 22 23 24 23 22 21 18 17 16 15 15 17 20 20 21 24 24 25 26 26 25 24 nan nan nan nan nan nan nan nan nan nan nan nan nan nan nan nan nan nan nan nan nan nan nan nan nan nan nan nan nan nan nan nan nan nan nan nan nan nan nan nan nan nan nan nan nan nan nan nan nan nan nan nan nan nan nan nan nan nan nan nan nan
23 22 24 24 24 22 21 19 18 15 15 16 18 19 22 23 24 26 27 26 26 25 26 nan nan nan nan nan nan nan nan nan nan nan nan nan nan nan nan nan nan nan nan nan nan nan nan nan nan nan nan nan nan nan nan nan nan nan nan nan nan nan nan nan nan nan nan nan nan nan nan nan nan nan nan nan nan nan nan nan nan nan nan nan nan
20 20 23 23 22 22 20 19 18 17 19 21 22 23 23 25 26 27 28 28 28 nan nan nan nan nan nan nan nan nan nan nan nan nan nan nan nan nan nan nan nan nan nan nan nan nan nan nan nan nan nan nan nan nan nan nan nan nan nan nan nan nan nan nan nan nan nan nan nan nan nan nan nan nan nan nan nan nan nan nan nan nan nan nan nan
21 19 21 22 22 23 21 21 20 19 22 nan nan nan nan nan nan nan nan nan nan nan nan nan nan nan nan nan nan nan nan nan nan nan nan nan nan nan nan nan nan nan nan nan nan nan nan nan nan nan nan nan nan nan nan nan nan nan nan nan nan nan nan nan nan nan nan nan nan nan nan nan nan nan nan nan nan nan nan nan nan nan nan nan nan
18 20 21 22 22 23 23 22 20 nan nan nan nan nan nan nan nan nan nan nan nan nan nan nan nan nan nan nan nan nan nan nan nan nan nan nan nan nan nan nan nan nan nan nan nan nan nan nan nan nan nan nan nan nan nan nan nan nan nan nan nan nan nan nan nan nan nan nan nan nan nan nan nan nan nan nan nan nan nan nan nan nan nan nan nan
22 24 23 23 22 23 23 nan nan nan nan nan nan nan nan nan nan nan nan nan nan nan nan nan nan nan nan nan nan nan nan nan nan nan nan nan nan nan nan nan nan nan nan nan nan nan nan nan nan nan nan nan nan nan nan nan nan nan nan nan nan nan nan nan nan nan nan nan nan nan nan nan nan nan nan nan nan nan nan nan nan nan nan nan nan
Wind_Direction
330 335 334 321 309 329 306 226 228 233 233 233 233 236 248 256 260 260 253 257 263 262 257 258 252 246 241 247 253 253 262 267 270 272 274 276 278 284 280 266 259 246 210 183 156 131 90 22 18 22 6 341 345 48 82 71 68 67 85 75 56 60 67 46 73 298 240 217 238 256 228 250 251 251 170 181 225 188 174 162 178 193 171 192 331
311 329 335 325 317 312 307 252 239 234 221 222 235 235 235 236 242 247 245 244 248 255 258 253 249 256 259 260 252 253 259 268 268 269 277 279 285 293 275 181 176 142 133 130 116 99 103 99 72 62 47 37 3 1 37 76 91 97 85 87 82 72 80 52 47 16 80 54 266 226 216 239 300 292 285 185 303 335 151 186 223 246 219 171 229
330 344 341 332 329 319 302 285 260 236 225 221 218 231 241 243 240 238 240 243 246 247 250 248 246 252 252 253 255 253 257 266 273 274 277 280 272 195 121 118 117 116 118 113 99 105 98 94 82 70 66 59 41 341 41 51 50 71 81 80 79 77 82 75 55 53 73 67 97 245 213 230 231 252 306 338 336 326 290 276 263 266 287 261 246
337 347 345 335 338 337 323 313 313 277 240 230 224 234 246 251 249 246 242 243 248 247 246 245 250 252 249 251 248 254 259 266 267 261 246 195 135 120 116 110 107 104 96 96 109 110 100 89 88 83 75 70 58 37 52 52 46 63 77 74 72 75 67 73 60 52 46 14 47 35 47 272 183 153 39 302 323 332 323 327 296 284 281 276 257
338 348 348 341 347 353 354 343 320 306 273 252 241 244 250 260 253 247 243 245 248 250 251 252 254 249 245 240 242 244 245 249 243 200 153 125 118 120 113 109 104 105 106 112 113 106 97 95 95 85 81 73 72 72 68 60 53 55 70 82 76 69 62 67 66 52 53 54 26 21 59 64 51 86 240 176 283 295 318 318 305 295 290 287 280
341 353 358 356 357 358 3 360 353 339 315 281 255 251 254 254 247 241 239 241 242 242 254 255 256 258 249 243 241 240 234 193 144 130 130 127 121 126 123 125 125 119 117 115 108 96 88 91 92 84 77 76 71 67 62 59 56 58 51 58 68 65 56 65 65 66 57 63 59 47 24 27 38 54 65 146 250 310 271 288 293 293 286 285 284
346 351 354 351 357 357 11 24 19 7 356 309 279 268 257 247 239 238 239 234 228 234 248 257 255 251 243 229 219 194 150 136 134 127 129 133 136 126 121 133 141 132 122 112 102 94 91 90 80 81 82 79 71 65 80 85 79 73 67 59 62 48 45 52 54 50 64 70 61 62 59 39 20 12 41 30 184 278 292 284 278 285 281 277 280
340 352 353 359 357 354 357 17 96 133 57 324 309 289 285 229 206 203 192 192 183 211 235 252 247 189 162 152 149 139 131 129 130 129 136 139 130 132 138 140 145 137 126 115 107 108 102 93 85 85 83 82 76 68 46 62 72 80 74 58 70 48 32 33 35 37 36 53 53 62 60 57 35 28 16 12 4 5 312 279 280 278 274 272 270
332 343 352 353 349 343 334 331 243 174 146 124 31 336 331 153 154 150 143 136 124 96 96 104 111 114 119 130 131 132 132 135 143 144 138 138 137 145 153 149 143 136 131 121 122 118 115 95 89 80 77 81 79 59 53 57 49 54 41 52 45 47 25 13 4 20 26 34 23 58 51 49 45 22 5 347 13 360 30 360 351 277 286 285 270
288 312 319 302 312 302 263 256 187 125 132 140 143 134 106 117 105 106 111 112 99 98 101 107 111 119 123 129 132 131 145 149 151 141 137 147 142 147 148 143 135 137 129 124 139 136 116 123 102 76 73 81 80 63 18 41 45 39 24 28 20 29 24 5 357 9 20 16 348 4 12 8 5 10 9 354 344 360 14 351 332 331 328 325 309
273 280 269 273 285 292 273 249 164 151 142 130 113 112 105 92 84 82 94 105 102 103 112 116 124 128 128 129 134 142 141 147 135 138 148 159 149 154 149 141 150 nan 172 150 153 152 128 124 101 86 101 104 297 309 325 320 340 7 32 5 4 8 15 6 2 350 351 347 335 2 8 354 338 347 342 339 334 332 339 355 352 339 342 5 319
279 273 273 285 296 285 264 228 165 140 130 129 126 97 114 107 100 100 103 109 110 112 120 128 131 135 137 139 141 139 148 146 143 132 146 149 155 157 165 167 176 176 176 157 149 162 254 313 296 249 265 318 311 291 284 277 274 285 289 310 328 341 342 342 341 342 342 340 340 343 343 337 334 338 332 326 324 322 308 308 308 295 297 322 310
288 278 282 301 323 322 302 234 160 144 126 118 120 89 105 107 105 121 113 114 121 122 125 134 139 140 145 147 149 156 157 159 157 166 163 178 176 184 178 nan 182 183 182 176 nan 219 240 257 261 273 274 264 257 258 260 247 247 249 247 260 284 290 298 307 321 330 327 331 335 331 328 324 327 324 314 309 306 302 304 305 304 298 302 289 287
296 290 295 306 331 330 322 346 63 125 127 115 110 139 126 103 108 122 123 131 141 141 140 142 144 150 157 157 156 172 170 181 187 202 196 204 nan nan nan nan 206 199 nan 230 nan 247 256 264 269 267 264 263 264 264 263 259 273 279 285 288 273 271 281 290 299 302 305 315 311 313 314 316 316 310 307 301 302 294 295 304 295 280 287 288 279
304 297 308 309 328 333 340 4 46 99 113 116 112 162 161 138 167 199 171 154 157 155 159 155 155 162 166 171 173 192 189 209 201 nan nan nan nan nan nan nan nan nan nan nan nan nan nan nan nan nan nan nan nan nan nan nan 269 275 276 274 270 272 271 274 283 285 287 290 296 304 304 303 304 302 298 299 297 299 297 295 290 281 266 274 275
320 286 284 289 317 320 321 15 94 126 83 148 195 193 183 176 188 240 257 155 164 171 167 169 170 175 190 187 189 208 204 207 210 207 211 nan nan nan nan nan nan nan nan nan nan nan nan nan nan nan nan nan nan nan nan nan nan 271 nan nan nan 276 274 276 nan nan nan 289 290 287 286 290 290 291 293 293 292 289 285 281 282 279 273 258 261
320 279 278 282 284 297 296 313 212 208 213 227 229 217 222 207 208 225 229 204 207 193 191 193 195 209 206 nan nan nan nan 215 215 nan nan 223 228 nan nan 225 nan nan nan nan nan nan nan nan nan nan nan nan nan nan nan nan nan nan nan nan nan nan 273 275 279 281 283 nan nan nan nan nan 283 283 281 282 284 283 284 283 283 286 284 277 265
328 283 264 271 283 288 271 266 277 254 241 237 236 226 227 217 215 224 222 234 227 231 235 240 237 231 227 nan 222 nan nan nan 235 237 235 nan nan nan 243 nan nan nan nan nan nan nan nan 262 nan nan nan nan nan nan nan nan nan nan nan nan nan nan nan nan nan 280 280 nan 281 279 279 278 278 274 272 272 272 275 276 279 280 280 280 282 277
310 276 248 236 247 253 258 263 256 251 244 244 237 238 235 221 222 225 229 232 239 238 238 239 243 239 nan nan 242 240 nan nan 241 241 nan nan nan nan nan nan nan nan nan nan nan nan nan nan nan nan nan nan nan nan nan nan nan nan 274 273 nan nan nan nan nan 274 275 275 275 nan nan nan nan nan nan nan 266 270 273 274 276 277 278 280 277
319 291 254 242 250 264 276 273 265 258 257 252 249 242 244 236 238 233 234 238 242 248 244 nan 242 248 248 249 nan nan nan nan nan nan nan nan nan nan nan nan nan nan nan nan nan nan nan nan nan nan nan nan nan nan nan nan nan nan nan nan nan nan nan nan nan nan nan nan nan nan nan nan nan nan nan nan nan nan 263 267 271 274 275 274 271
329 308 279 254 255 266 276 271 265 261 261 255 252 251 244 240 244 246 250 249 254 249 249 nan 248 251 254 nan nan nan nan 253 nan nan nan nan nan 258 nan nan nan nan nan nan nan nan nan nan nan nan nan nan nan nan nan nan 276 nan nan nan nan nan nan nan nan nan nan nan nan nan nan nan nan nan nan nan nan nan nan nan nan 266 267 267 270
338 325 308 278 252 261 273 272 267 267 265 263 260 255 253 251 253 253 250 253 nan 250 256 254 254 nan nan nan nan nan nan nan nan nan 256 nan nan nan nan nan nan nan nan nan nan 275 nan nan nan nan nan nan nan nan nan 280 nan nan nan 278 nan nan nan nan nan nan nan nan nan nan nan nan nan nan nan nan nan nan nan nan nan nan nan 262 266
341 331 318 281 266 269 277 281 278 278 273 271 270 269 266 262 260 nan 260 259 259 262 262 266 nan nan nan nan 264 266 nan nan nan 260 nan nan nan nan 265 nan nan nan nan nan nan 275 275 nan 277 278 nan nan nan 277 276 279 nan nan nan nan 279 nan nan nan nan nan nan nan nan 273 nan nan nan nan nan nan nan nan nan nan 262 262 261 262 261
334 325 307 288 282 278 277 277 276 274 275 277 276 272 271 270 nan nan 264 265 265 266 nan nan nan nan nan nan 273 273 273 273 268 267 268 nan 267 nan 274 nan nan 271 269 271 274 nan nan nan nan 278 278 nan nan nan nan nan nan nan nan nan nan nan nan nan nan nan nan nan 275 nan nan nan nan nan nan nan nan nan 263 264 263 264 265 265 266
330 321 306 298 297 297 290 286 283 281 281 281 280 nan 278 nan nan nan nan 271 269 266 265 nan nan 265 nan nan nan 269 272 273 272 267 264 268 269 268 269 272 272 271 272 nan 273 274 274 273 274 274 274 275 276 277 278 nan nan nan nan nan nan nan nan nan nan nan 278 279 nan nan nan nan nan nan nan nan nan nan nan 264 265 267 267 268 269
332 321 308 310 308 300 292 288 285 nan nan nan nan nan nan nan nan nan 272 271 272 268 269 267 268 269 267 267 268 269 272 268 265 265 267 267 270 269 269 270 271 nan nan nan 272 nan 274 274 273 274 274 275 275 276 277 278 278 nan nan nan nan nan nan nan nan nan 280 282 nan nan nan nan nan nan nan nan nan nan nan 267 268 269 270 270 269
334 324 315 309 305 303 297 290 nan nan nan nan nan nan nan nan 280 278 279 279 277 274 273 273 273 274 272 271 271 272 273 271 269 272 272 273 271 272 272 271 274 275 274 273 273 nan 274 275 275 275 276 276 276 276 277 278 279 280 282 282 nan nan nan 279 280 282 283 281 nan nan nan nan nan nan nan nan nan nan 269 267 267 267 267 268 269
328 322 319 318 314 305 299 289 nan nan nan nan nan nan nan 292 293 288 285 282 280 282 283 282 280 278 275 275 277 274 272 270 272 272 270 269 269 267 268 269 270 268 270 272 272 273 274 274 275 276 277 277 278 278 279 281 283 284 284 284 286 285 285 285 285 284 283 nan nan nan nan nan nan nan nan nan nan nan 270 nan 267 267 266 266 267
324 319 318 316 312 305 299 289 nan nan nan nan nan nan nan 289 291 291 289 291 289 289 287 286 281 279 280 279 275 274 273 272 271 271 269 268 268 269 268 268 269 269 271 272 273 272 272 272 273 275 275 277 279 282 283 284 283 281 283 284 283 284 285 286 285 284 nan nan nan nan nan nan nan 281 279 271 nan nan nan nan nan 268 266 266 265
322 313 310 310 308 302 294 nan 289 nan nan nan nan nan 294 293 292 291 291 290 287 285 283 279 279 277 277 275 276 275 275 275 274 272 274 273 271 269 269 269 270 272 273 273 273 274 275 278 279 278 279 279 281 281 283 274 273 280 282 281 281 282 282 283 284 nan nan nan nan nan nan 287 286 282 nan nan nan nan nan nan 270 270 270 267 266
321 315 306 301 300 295 291 291 296 nan nan nan nan nan 296 292 292 290 291 288 283 282 280 282 282 280 281 281 280 278 278 279 279 276 275 275 275 274 273 273 273 273 274 276 277 276 277 nan nan nan nan 279 280 282 271 nan nan nan nan nan nan nan nan nan nan nan nan nan nan nan nan nan 283 280 278 275 nan nan nan nan 261 261 264 268 268
306 311 304 297 296 295 294 295 299 304 nan 303 302 296 287 288 291 293 290 285 287 288 288 286 286 282 281 282 281 279 280 280 279 281 280 279 277 274 272 272 272 272 274 274 274 nan nan nan nan 277 nan nan 279 275 nan nan nan nan nan 281 nan nan nan nan nan nan nan nan nan nan nan nan nan nan nan nan 278 274 268 264 263 263 262 262 268
298 299 298 292 292 296 302 302 294 293 297 301 299 296 296 294 296 297 293 293 294 293 291 289 287 284 282 282 277 276 276 276 279 279 279 276 274 273 272 273 274 277 276 275 276 275 nan nan nan nan nan nan nan 284 nan nan nan nan nan nan nan nan nan nan nan nan nan nan nan nan nan nan nan 277 275 275 nan nan 271 267 263 261 263 264 265
292 294 293 290 292 296 301 305 304 302 301 299 305 309 308 306 305 302 303 300 294 290 288 286 284 283 280 277 274 272 273 275 276 277 277 277 276 277 278 278 278 276 276 277 nan nan nan nan nan nan nan nan nan 288 nan nan nan nan nan nan nan nan nan nan nan nan nan nan nan nan nan nan nan nan nan nan nan 276 274 nan nan nan nan 267 264
288 295 301 299 298 298 294 292 295 299 295 296 300 302 302 302 302 305 305 303 300 296 291 284 283 280 276 270 268 268 272 275 274 275 278 279 281 281 279 279 280 282 284 nan nan nan nan nan nan nan nan nan nan nan nan nan nan nan nan nan nan nan nan nan nan nan nan nan nan nan nan nan nan nan nan 276 275 274 274 nan nan nan nan nan 268
292 299 304 303 303 301 299 303 301 294 294 300 307 303 306 310 306 305 304 303 302 298 285 264 259 263 267 269 270 269 268 268 272 279 281 282 283 283 283 284 286 nan nan nan nan nan nan nan nan nan nan nan nan nan nan nan nan nan nan nan nan nan nan nan nan nan nan nan nan nan nan nan nan nan 275 271 273 276 276 275 273 271 270 268 267
297 304 307 306 301 297 303 300 300 299 300 305 306 311 313 312 313 309 304 300 295 279 261 262 286 282 267 250 247 261 272 273 281 285 285 286 286 284 nan 289 nan nan nan nan nan nan nan nan nan nan nan nan nan nan nan nan nan nan nan nan nan nan nan nan nan nan nan nan nan nan nan nan nan nan 279 275 274 271 274 273 nan nan nan nan nan
295 299 298 297 297 296 296 298 299 304 313 310 311 313 313 312 307 303 304 301 296 290 290 290 281 280 291 295 295 285 281 288 290 289 289 288 289 290 nan 294 nan nan nan nan nan nan nan nan nan nan nan nan nan nan nan nan nan nan 290 nan nan nan nan nan nan nan nan nan nan 291 287 nan nan nan 284 nan nan nan nan nan nan nan nan nan nan
295 299 299 299 302 303 297 292 301 314 313 307 312 315 316 316 312 309 307 306 303 300 299 293 283 283 297 314 311 302 296 292 289 291 292 293 294 nan nan nan nan nan nan nan nan nan nan nan nan nan nan 294 nan nan nan nan nan nan nan nan nan nan nan nan nan nan nan nan nan 295 nan nan nan 292 nan nan nan nan nan nan nan nan nan nan nan
286 294 301 296 287 280 285 300 315 318 301 304 307 307 307 310 314 309 306 304 304 305 300 293 291 297 308 298 295 294 291 291 291 291 295 nan nan nan nan nan nan nan nan nan nan nan nan nan nan nan nan nan nan nan nan nan nan nan nan nan nan nan nan nan nan nan nan nan nan nan nan nan nan nan nan nan nan nan nan nan nan nan nan nan nan
286 285 281 278 277 288 299 302 295 294 300 307 308 306 305 303 302 299 297 297 298 299 300 306 311 313 306 298 296 293 293 nan nan nan nan nan nan nan nan nan nan nan nan nan nan nan nan nan nan nan nan nan nan nan nan nan nan nan nan nan nan nan nan nan nan nan nan nan nan nan nan nan nan nan nan nan nan nan nan nan nan nan nan nan nan
278 282 281 275 271 267 266 263 268 282 295 307 311 304 293 289 293 295 297 300 301 303 306 305 305 307 299 294 294 295 292 nan nan nan nan nan nan nan nan nan nan nan nan nan nan nan nan nan nan nan nan nan nan nan nan nan nan nan nan nan nan nan nan nan nan nan nan nan nan nan nan nan nan nan nan nan nan nan nan nan nan nan nan nan nan
282 273 277 286 280 274 271 271 270 273 278 286 296 299 296 292 293 299 299 304 308 304 302 307 307 300 296 296 298 295 293 294 296 nan nan nan nan nan nan nan nan nan nan nan nan nan nan nan nan nan nan nan nan nan nan nan nan nan nan nan nan nan nan nan nan nan nan nan nan nan nan nan nan nan nan nan nan nan nan nan nan nan nan nan nan
271 277 283 282 278 273 272 271 273 275 279 285 293 298 299 300 305 305 306 305 303 305 309 305 300 295 296 299 296 294 nan nan nan nan nan nan nan nan nan nan nan nan nan nan nan nan nan nan nan nan nan nan nan nan nan nan nan nan nan nan nan nan nan nan nan nan nan nan nan nan nan nan nan nan nan nan nan nan nan nan nan nan nan nan nan
279 278 278 279 284 286 283 278 276 278 277 281 287 295 300 302 308 306 307 306 304 302 298 297 298 299 297 297 nan nan nan nan 292 nan nan nan nan nan nan nan nan nan nan nan nan nan nan nan nan nan nan nan nan nan nan nan nan nan 321 nan nan nan nan nan nan nan nan nan nan nan nan nan nan nan nan nan nan nan nan nan nan nan nan nan nan
278 279 282 284 285 284 285 284 280 278 277 282 290 294 295 300 302 299 298 298 296 296 297 294 nan nan nan nan nan nan nan nan nan nan nan nan nan nan nan nan nan nan nan nan nan nan nan nan nan nan nan nan nan nan nan nan nan nan nan nan nan nan nan nan nan nan nan nan nan nan nan nan nan nan nan nan nan nan nan nan nan nan nan nan nan
282 286 286 286 288 288 289 290 291 293 293 291 290 290 291 294 294 295 292 290 290 289 286 nan nan nan nan nan nan nan nan nan nan nan nan nan nan nan nan nan nan nan nan nan nan nan nan nan nan nan nan nan nan nan nan nan nan nan nan nan nan nan nan nan nan nan nan nan nan nan nan nan nan nan nan nan nan nan nan nan nan nan nan nan nan
280 281 281 280 282 285 285 283 280 278 278 277 278 282 286 286 285 285 285 284 284 nan nan nan nan nan nan nan nan nan nan nan nan nan nan nan nan nan nan nan nan nan nan nan nan nan nan nan nan nan nan nan nan nan nan nan nan nan nan nan nan nan nan nan nan nan nan nan nan nan nan nan nan nan nan nan nan nan nan nan nan nan nan nan nan
276 272 275 278 280 279 278 277 278 279 280 nan nan nan nan nan nan nan nan nan nan nan nan nan nan nan nan nan nan nan nan nan nan nan nan nan nan nan nan nan nan nan nan nan nan nan nan nan nan nan nan nan nan nan nan nan nan nan nan nan nan nan nan nan nan nan nan nan nan nan nan nan nan nan nan nan nan nan nan nan nan nan nan nan nan
274 274 275 274 274 278 279 278 280 nan nan nan nan nan nan nan nan nan nan nan nan nan nan nan nan nan nan nan nan nan nan nan nan nan nan nan nan nan nan nan nan nan nan nan nan nan nan nan nan nan nan nan nan nan nan nan nan nan nan nan nan nan nan nan nan nan nan nan nan nan nan nan nan nan nan nan nan nan nan nan nan nan nan nan nan
285 281 277 278 279 282 283 nan nan nan nan nan nan nan nan nan nan nan nan nan nan nan nan nan nan nan nan nan nan nan nan nan nan nan nan nan nan nan nan nan nan nan nan nan nan nan nan nan nan nan nan nan nan nan nan nan nan nan nan nan nan nan nan nan nan nan nan nan nan nan nan nan nan nan nan nan nan nan nan nan nan nan nan nan nan